TimePDT,TemperatureF,Dew PointF,Humidity,Sea Level PressureIn,VisibilityMPH,Wind Direction,Wind SpeedMPH,Gust SpeedMPH,PrecipitationIn,Events,Conditions,WindDirDegrees,DateUTC
12:25 AM,46.4,39.2,76,30.04,10.0,SSE,12.7,-,N/A,,Overcast,150,2012-11-03 07:25:00
12:56 AM,46.0,39.9,79,30.03,10.0,SSE,10.4,-,N/A,,Overcast,160,2012-11-03 07:56:00
1:56 AM,44.1,41.0,89,30.05,4.0,South,12.7,-,0.00,Rain,Light Rain,170,2012-11-03 08:56:00
2:05 AM,44.6,42.8,93,30.07,7.0,South,11.5,-,0.00,,Overcast,180,2012-11-03 09:05:00
2:18 AM,44.6,42.8,93,30.06,1.8,South,15.0,-,0.00,,Overcast,180,2012-11-03 09:18:00
2:20 AM,44.6,42.8,93,30.07,0.8,South,15.0,-,0.00,Rain,Light Rain,180,2012-11-03 09:20:00
2:31 AM,46.4,44.6,93,30.07,0.2,South,13.8,-,0.00,Fog-Rain,Light Rain,190,2012-11-03 09:31:00
2:56 AM,46.0,45.0,96,30.04,0.2,South,12.7,-,0.00,Fog,Fog,190,2012-11-03 09:56:00
3:56 AM,46.0,45.0,96,30.06,0.2,South,10.4,18.4,0.00,Fog-Rain,Light Rain,190,2012-11-03 10:56:00
4:56 AM,46.0,45.0,96,30.09,0.2,SSW,12.7,-,0.00,Fog,Fog,200,2012-11-03 11:56:00
5:56 AM,46.0,46.0,100,30.10,0.2,South,13.8,19.6,N/A,Fog,Fog,180,2012-11-03 12:56:00
6:56 AM,46.0,45.0,96,30.13,0.2,South,13.8,-,0.01,Fog-Rain,Light Rain,190,2012-11-03 13:56:00
7:56 AM,46.0,46.0,100,30.13,0.2,South,13.8,-,0.01,Fog,Fog,170,2012-11-03 14:56:00
8:45 AM,46.4,46.4,100,30.16,0.2,South,11.5,-,N/A,Fog,Fog,170,2012-11-03 15:45:00
8:56 AM,46.9,46.0,97,30.16,0.2,South,11.5,-,N/A,Fog,Fog,180,2012-11-03 15:56:00
9:09 AM,46.4,46.4,100,30.18,1.8,South,10.4,-,N/A,,Overcast,190,2012-11-03 16:09:00
9:16 AM,46.4,46.4,100,30.18,5.0,South,10.4,-,N/A,,Overcast,190,2012-11-03 16:16:00
9:27 AM,46.4,46.4,100,30.18,1.8,South,11.5,-,N/A,,Overcast,190,2012-11-03 16:27:00
9:38 AM,46.4,46.4,100,30.18,2.0,South,11.5,-,N/A,,Overcast,190,2012-11-03 16:38:00
9:46 AM,46.4,46.4,100,30.18,1.2,South,9.2,-,N/A,,Overcast,180,2012-11-03 16:46:00
9:54 AM,46.4,46.4,100,30.18,0.8,South,9.2,-,N/A,,Overcast,190,2012-11-03 16:54:00
9:56 AM,46.9,46.9,100,30.16,1.0,South,11.5,-,N/A,,Overcast,190,2012-11-03 16:56:00
9:58 AM,46.4,46.4,100,30.18,3.0,South,11.5,-,N/A,,Overcast,180,2012-11-03 16:58:00
10:09 AM,48.2,46.4,93,30.18,10.0,South,10.4,-,N/A,,Overcast,180,2012-11-03 17:09:00
10:56 AM,48.9,48.0,97,30.17,10.0,South,10.4,-,N/A,,Overcast,170,2012-11-03 17:56:00
11:21 AM,51.8,48.2,88,30.20,10.0,South,6.9,-,N/A,,Scattered Clouds,180,2012-11-03 18:21:00
11:56 AM,51.1,46.9,86,30.19,10.0,South,6.9,-,N/A,,Clear,190,2012-11-03 18:56:00
12:56 PM,52.0,46.0,80,30.16,10.0,South,8.1,-,N/A,,Clear,170,2012-11-03 19:56:00
1:56 PM,55.0,46.0,72,30.16,10.0,Variable,6.9,-,N/A,,Clear,0,2012-11-03 20:56:00
2:56 PM,55.0,46.9,74,30.16,10.0,South,6.9,-,N/A,,Clear,180,2012-11-03 21:56:00
3:56 PM,55.0,48.0,77,30.18,10.0,Calm,Calm,-,N/A,,Partly Cloudy,0,2012-11-03 22:56:00
4:21 PM,55.4,48.2,77,30.23,10.0,Calm,Calm,-,N/A,,Mostly Cloudy,0,2012-11-03 23:21:00
4:52 PM,53.6,48.2,82,30.23,10.0,Calm,Calm,-,N/A,,Overcast,0,2012-11-03 23:52:00
4:56 PM,54.0,48.0,80,30.19,10.0,Calm,Calm,-,N/A,,Overcast,0,2012-11-03 23:56:00
5:56 PM,52.0,46.9,83,30.19,10.0,South,4.6,-,N/A,,Overcast,190,2012-11-04 00:56:00
6:56 PM,51.1,46.9,86,30.20,10.0,South,4.6,-,N/A,,Partly Cloudy,170,2012-11-04 01:56:00
7:56 PM,51.1,48.0,89,30.20,10.0,South,8.1,-,N/A,,Mostly Cloudy,180,2012-11-04 02:56:00
8:56 PM,52.0,48.0,86,30.20,10.0,South,9.2,-,N/A,,Overcast,190,2012-11-04 03:56:00
9:56 PM,51.1,46.9,86,30.22,10.0,South,10.4,-,N/A,,Mostly Cloudy,180,2012-11-04 04:56:00
10:56 PM,51.1,46.9,86,30.22,10.0,SSE,13.8,-,N/A,,Overcast,160,2012-11-04 05:56:00
11:56 PM,50.0,46.9,89,30.22,10.0,SSE,10.4,-,N/A,,Overcast,160,2012-11-04 06:56:00